Theta_e
349 349 349 348 350 350 351 351 349 349 348 346 344 344 344 344 345 347 346 345 346 345 341 341 341 339 338 339 344 343 340 343 341 336 343 338 339 342 337 335 333 335 343
349 347 350 350 350 351 351 350 351 349 348 348 347 347 346 345 347 349 347 347 346 345 343 341 343 343 339 336 335 338 339 342 343 338 339 342 337 338 335 336 337 332 336
345 348 347 347 350 350 351 351 350 350 349 349 348 346 345 346 349 350 350 349 349 347 345 342 342 344 344 343 343 342 339 336 336 340 337 338 338 339 341 337 337 340 341
344 347 349 350 347 347 346 351 349 348 349 350 350 349 346 346 349 350 350 349 350 349 349 345 344 344 344 344 344 343 343 343 342 339 340 340 337 339 340 341 340 336 338
346 348 350 349 346 347 349 347 348 350 349 348 348 350 350 349 349 349 350 350 348 349 349 349 346 345 345 344 344 344 344 344 344 343 343 342 342 340 338 338 340 341 339
348 347 347 348 346 350 347 350 350 348 349 349 349 348 345 347 349 349 349 349 350 350 350 351 351 349 347 346 345 345 344 344 344 344 343 342 342 342 342 341 341 341 341
347 347 340 343 346 347 346 345 347 346 348 348 346 349 349 349 348 348 348 348 349 350 351 349 351 351 351 347 346 346 346 345 345 345 344 343 342 342 342 342 341 342 342
345 346 345 345 346 346 346 344 345 345 345 345 348 348 348 345 346 346 347 348 348 348 348 349 350 350 350 350 348 344 345 346 346 346 344 342 343 344 344 342 341 341 341
347 347 346 346 346 346 348 346 345 343 343 346 347 345 350 346 345 346 347 346 348 348 349 350 350 349 349 349 347 347 345 345 344 344 343 344 344 344 344 343 342 342 342
347 346 347 347 346 346 347 349 346 343 339 341 343 344 343 345 344 344 346 346 345 347 348 349 348 347 346 346 345 344 344 344 344 344 344 344 344 343 344 345 343 342 342
346 344 345 345 345 345 345 346 346 343 339 340 341 344 346 346 345 344 345 342 344 345 346 346 345 344 340 341 344 344 341 342 341 341 342 342 343 343 342 343 343 342 342
348 345 343 345 344 344 345 345 345 343 341 341 341 341 343 344 345 345 345 344 344 343 345 345 343 341 338 343 343 341 341 342 342 342 342 343 343 341 342 344 344 342 342
348 348 347 344 344 344 344 345 344 342 341 340 340 340 342 343 344 343 345 345 346 343 343 343 341 340 340 338 344 341 341 341 342 342 342 342 343 342 342 342 342 342 341
347 348 346 347 343 343 344 344 343 342 341 340 339 339 339 339 341 339 341 343 343 343 344 343 340 339 339 343 342 339 342 340 341 341 341 341 342 342 342 341 341 340 340
347 347 348 347 343 344 344 344 344 344 342 342 342 343 343 343 342 341 337 339 342 344 342 339 339 339 339 340 341 341 341 338 339 339 339 340 340 340 340 339 338 341 341
346 346 347 348 346 343 343 341 341 344 344 344 345 344 344 342 344 343 342 340 341 341 342 339 339 339 338 338 339 338 338 338 339 339 338 338 338 338 338 338 339 340 339
346 345 348 347 347 344 340 338 338 339 341 342 342 342 344 344 342 343 343 341 341 340 342 338 338 338 338 339 338 338 337 337 338 337 336 335 335 335 335 336 337 339 339
346 346 348 347 347 346 345 345 346 344 345 345 343 343 342 340 339 340 343 344 343 342 342 341 337 334 336 337 338 337 336 337 337 336 335 335 334 335 336 336 338 339 338
349 346 347 347 347 347 347 347 346 345 344 344 343 343 343 343 343 343 343 343 343 342 340 338 338 334 335 336 335 334 334 335 335 334 333 334 333 333 334 336 338 338 336
350 348 347 347 347 347 346 345 346 345 344 343 343 342 342 343 340 339 342 343 343 342 342 341 339 335 335 334 334 331 330 331 331 330 330 332 332 332 333 335 337 336 335
351 349 347 347 347 346 345 345 345 345 344 343 342 341 341 340 340 339 340 341 343 340 339 338 335 334 333 331 330 329 328 327 327 328 328 328 330 332 332 332 334 333 331
350 348 347 347 346 345 343 342 343 343 344 343 343 341 340 337 338 337 337 335 338 338 339 339 337 336 334 333 331 330 328 326 328 326 328 327 328 328 330 330 331 331 330
351 349 349 348 346 346 343 342 341 341 342 342 343 342 340 339 338 338 335 333 335 337 338 339 338 338 338 334 332 330 330 330 331 329 328 330 325 328 327 326 326 327 326
349 349 349 348 347 346 343 342 341 341 342 342 341 341 340 340 337 338 338 339 337 336 336 336 337 338 338 337 334 333 331 330 329 327 327 331 328 328 327 326 324 324 323
347 348 345 343 343 345 344 342 342 342 343 341 341 340 340 340 338 335 337 338 338 338 336 335 333 333 333 333 333 332 330 328 326 326 327 326 326 327 326 324 323 322 322
343 341 341 338 337 338 336 337 341 342 342 341 340 339 335 338 336 335 336 338 339 338 337 334 333 332 332 332 332 332 330 330 331 329 327 327 327 328 331 328 326 324 321
Wind_Speed
12 11 11 11 12 11 11 11 11 11 11 11 12 12 12 12 11 10 9 10 9 14 14 12 12 14 15 15 16 16 16 16 16 16 16 15 14 14 14 14 14 13 14
13 12 11 12 12 12 11 11 11 11 12 12 13 13 13 12 12 11 11 12 12 14 18 16 12 14 14 16 16 18 18 17 18 18 17 17 17 17 16 16 15 15 15
18 14 14 15 14 13 12 11 11 11 12 12 13 13 14 14 13 12 12 13 12 15 17 19 18 16 15 15 15 17 18 19 19 19 19 19 19 18 17 18 18 17 16
19 16 14 15 16 14 14 12 12 13 13 12 13 13 14 14 14 12 12 13 13 12 15 20 18 20 19 19 18 18 19 19 20 21 21 20 20 20 21 21 20 19 19
19 17 17 17 17 15 14 16 15 14 14 15 14 14 13 13 13 13 14 14 16 14 15 16 21 20 19 21 21 21 21 21 21 22 23 22 21 22 21 22 22 21 21
20 19 20 21 20 15 17 14 15 17 16 17 13 14 14 13 13 13 14 13 13 14 14 16 15 16 23 23 25 24 25 25 23 23 22 22 23 22 23 21 22 22 22
21 23 25 25 23 20 19 19 17 19 18 15 13 12 12 14 15 14 15 14 14 13 14 15 14 14 15 19 21 26 28 29 27 24 24 25 24 24 23 24 23 22 23
20 21 22 23 20 20 21 20 18 16 15 17 10 8 5 12 14 15 14 15 15 14 14 14 13 14 14 13 16 18 19 21 24 25 25 26 27 28 25 24 23 24 21
20 19 19 20 19 18 16 18 21 19 12 7 15 9 3 7 2 6 10 12 13 13 13 12 11 10 10 10 12 13 16 18 20 21 23 24 26 27 27 27 24 23 21
17 18 18 18 17 17 18 18 24 27 25 19 13 21 14 3 4 4 4 8 11 13 13 11 10 8 8 7 9 11 12 13 16 18 21 23 23 23 24 23 22 21 20
16 15 16 15 15 18 21 22 21 23 30 24 24 13 17 10 8 9 9 10 8 11 11 10 8 7 9 9 7 9 11 12 14 14 16 18 20 18 17 17 18 17 17
12 14 15 15 16 18 19 21 19 22 27 26 19 16 11 7 10 11 10 15 15 15 12 11 10 11 12 8 8 10 10 9 9 9 10 12 15 16 16 16 15 16 14
12 13 14 13 13 14 14 14 18 16 28 27 22 18 13 12 13 13 13 17 12 14 10 10 13 14 11 11 7 7 9 6 5 5 5 5 7 11 12 12 12 13 13
10 10 11 9 9 9 10 10 12 16 20 26 29 24 22 22 18 15 14 9 7 10 9 8 6 9 9 7 7 7 4 4 3 2 1 2 5 7 9 10 11 12 11
9 12 10 9 9 9 10 10 11 13 16 20 21 19 18 16 14 16 13 13 10 3 4 5 5 8 9 7 7 5 3 3 3 2 3 3 5 7 8 9 11 13 15
12 12 12 11 11 10 10 10 9 10 12 14 14 14 14 14 14 14 14 12 13 7 2 9 7 7 7 11 10 7 5 5 5 5 5 6 6 7 8 9 10 13 16
15 16 15 15 15 14 13 12 12 10 11 12 12 13 14 13 11 11 12 13 12 12 8 8 10 8 9 12 12 10 9 7 7 6 5 5 5 5 7 8 9 14 20
18 17 14 15 15 14 14 14 13 12 13 13 12 13 14 12 13 12 12 12 13 13 14 11 11 10 12 14 16 14 12 9 8 7 5 6 5 5 7 9 10 16 23
18 18 18 19 18 17 16 16 14 12 11 11 10 11 13 13 14 12 11 8 10 12 14 10 8 9 13 13 15 14 13 12 10 9 7 6 7 8 8 9 12 19 19
23 22 22 22 20 18 16 14 13 13 12 11 10 10 11 12 14 12 9 8 8 8 10 11 10 9 10 13 20 19 14 14 13 10 10 8 10 10 10 11 15 16 16
20 20 21 19 16 15 15 15 15 13 12 11 10 10 10 11 13 10 8 9 8 8 8 9 7 8 8 10 17 20 17 15 11 11 10 9 12 12 13 13 14 14 13
21 21 22 20 18 18 19 20 16 14 14 12 12 11 10 12 13 13 12 11 11 10 11 9 9 9 11 12 17 22 15 9 4 11 9 9 9 11 14 14 15 18 16
25 26 25 22 22 21 22 21 21 16 16 14 13 12 11 10 13 10 11 10 11 11 9 7 8 8 9 12 16 20 19 13 8 10 12 10 11 11 13 16 16 17 16
34 30 26 23 22 23 24 23 23 20 18 16 15 15 14 13 13 12 9 8 9 9 9 6 5 5 7 11 15 21 24 18 10 11 12 6 8 10 11 13 18 19 18
29 24 18 16 18 19 22 25 25 19 19 18 16 15 15 14 13 15 10 9 9 8 9 7 6 5 5 9 13 17 18 17 4 7 14 7 6 6 10 14 17 19 19
24 16 16 14 14 16 18 21 26 22 21 20 17 15 18 15 14 16 13 11 11 11 10 9 8 6 5 7 10 11 14 15 8 6 14 12 10 8 7 9 11 14 20
Wind_Direction
194 193 196 198 200 200 200 201 206 208 218 219 219 223 229 236 237 247 255 261 258 234 234 240 245 243 242 241 243 249 245 246 242 243 243 242 243 246 250 249 244 243 244
209 212 212 212 210 208 210 210 213 217 221 224 228 230 231 233 239 247 253 258 270 249 239 238 246 256 254 252 248 244 250 246 249 248 244 250 248 249 251 251 250 247 247
217 219 226 228 222 215 214 217 220 225 226 230 234 235 237 233 240 251 254 255 265 259 248 243 245 250 255 261 260 260 258 254 252 254 254 247 254 253 255 257 256 253 253
223 223 229 235 230 221 223 216 220 223 228 232 237 235 236 237 244 248 252 255 253 261 259 250 249 252 254 258 260 262 263 262 260 256 255 256 255 254 258 256 258 258 255
228 231 236 239 238 236 228 228 225 227 232 237 242 239 237 240 248 248 248 252 253 253 253 256 252 253 257 258 262 263 264 264 259 256 257 256 256 255 255 258 258 258 259
228 234 246 250 243 238 236 230 234 234 236 245 246 250 250 250 248 247 248 251 249 250 252 255 258 259 259 259 254 258 261 264 263 260 258 257 258 258 257 256 259 260 257
226 232 231 249 246 242 240 245 242 242 245 249 248 252 254 251 248 248 248 247 247 248 248 259 256 258 264 264 259 259 261 260 261 262 261 260 255 255 257 258 256 258 262
225 235 231 235 238 241 243 241 234 236 248 240 231 240 258 242 245 242 241 243 246 247 251 253 254 260 267 271 272 274 269 260 258 258 261 261 257 255 261 258 254 250 253
222 230 240 244 245 240 241 239 230 229 230 259 237 224 207 238 255 215 232 240 247 250 251 251 250 256 266 275 283 282 273 265 257 262 265 260 255 255 261 260 247 247 249
228 228 237 243 244 240 243 239 238 235 240 236 261 235 227 223 249 255 229 247 250 249 248 245 246 251 263 272 280 283 281 272 261 259 258 257 257 258 256 249 241 235 240
224 234 228 233 236 242 249 245 237 228 231 218 230 237 229 236 247 264 276 259 257 252 247 242 243 246 259 268 280 285 285 281 276 270 266 261 250 254 247 235 230 231 232
209 211 219 227 239 241 239 243 248 225 220 218 224 233 228 222 235 240 259 267 270 265 259 248 243 255 261 262 271 273 282 284 282 277 271 265 245 239 237 236 227 225 230
206 211 214 219 226 235 233 229 228 196 206 212 218 237 238 240 245 255 262 271 270 258 251 242 246 256 255 266 256 262 279 275 279 277 274 267 238 222 222 222 213 211 207
218 217 222 220 224 226 213 208 203 211 215 216 212 225 239 253 249 244 239 259 265 234 238 243 253 251 248 240 232 264 267 266 262 256 236 195 177 180 187 186 191 193 170
220 219 219 221 215 201 201 211 212 203 204 211 220 227 233 242 243 241 242 246 238 223 202 225 198 224 236 240 215 214 205 229 221 187 166 163 164 170 171 174 174 166 165
220 218 223 223 219 212 207 210 217 213 208 211 214 214 222 232 235 241 238 238 232 203 179 206 206 218 227 225 226 203 189 185 173 152 145 145 149 155 158 162 174 170 163
221 216 217 213 209 207 206 210 218 215 223 230 227 226 226 226 224 216 222 227 227 218 232 213 210 203 218 219 207 197 186 177 173 161 162 153 155 176 181 176 175 178 168
223 219 221 215 209 211 209 205 205 213 220 224 231 235 235 229 227 232 232 228 224 221 224 218 210 219 223 214 218 197 179 185 182 173 173 156 141 144 158 159 160 165 164
229 222 220 222 215 211 214 215 212 211 218 223 227 227 244 223 227 220 221 229 231 227 220 225 224 210 216 220 203 184 180 185 181 181 178 164 151 143 150 153 163 163 163
234 227 227 222 220 219 220 222 212 213 215 227 237 249 257 240 241 228 217 229 215 216 216 214 211 208 208 208 206 180 174 179 177 176 170 164 164 157 154 156 165 168 173
248 246 238 233 231 228 225 219 213 218 225 228 236 246 252 259 252 233 237 218 203 219 220 215 208 200 189 170 182 184 183 181 174 182 172 173 172 172 176 172 173 179 184
242 244 243 241 240 235 229 222 217 216 213 220 226 236 247 257 243 239 243 244 219 213 214 210 197 208 205 200 184 185 173 162 163 203 179 186 184 187 193 192 198 201 204
244 241 243 241 235 235 238 226 222 220 222 216 219 221 231 244 240 232 232 238 228 208 206 222 210 210 193 196 195 184 182 176 171 170 181 186 191 198 205 209 207 206 210
253 238 242 244 244 239 239 233 230 226 235 230 220 215 217 224 225 224 220 211 202 202 204 200 210 218 210 199 208 208 201 191 176 176 173 194 185 207 209 217 220 216 217
254 239 237 240 243 244 241 239 232 234 232 234 227 218 213 213 220 220 212 192 193 192 206 189 180 178 193 193 194 195 178 171 153 185 192 168 197 203 221 224 227 226 227
250 254 249 249 253 248 249 249 244 235 235 222 220 217 219 205 215 212 205 200 193 199 186 180 185 179 186 182 178 187 188 179 167 173 202 183 189 182 208 215 216 218 221